Location: ?????
(55.8833°N, 37.6500°E)
Time: 08:54:54
(UTC+00:00)

Cosmos 2219 - Pass Details

Date: 27 February 2020
Orbit: 832 x 862 km, 71.1° (Epoch: 31 March)

Event Time Altitude Azimuth Distance (km) Brightness Sun altitude
Rises 16:57:50 0° 325° (NW) 3,442 7.1 -17.5°
Reaches altitude 10° 17:00:18 10° 324° (NW) 2,505 6.3 -17.8°
Maximum altitude 17:06:04 81° 239° (WSW) 879 3.3 -18.6°
Enters shadow 17:10:19 19° 154° (SSE) 1,943 4.7 -19.2°
